Regional Weather Roundup
Issued by NWS Binghamton, NY

Home | Current Version | Previous Version | Text Only | Print | Product List | Glossary On
Versions: 1 2 3 4 5 6 7 8 9 10 11 12 13 14 15 16 17 18 19 20 21 22 23 24 25 26 27 28
000
ASUS41 KBGM 270510
RWRBGM

REGIONAL WEATHER ROUNDUP
NATIONAL WEATHER SERVICE BINGHAMTON NY
1200 AM EST MON FEB 27 2017

Note: "fair" indicates few or no clouds below 12,000 feet with no
significant weather and/or obstructions to visibility.

* = Station(s) that does not report precipitation, such as rain,
snow, etc, also no thunder or fog.

NYZ009-015>018-022>025-036-037-044>046-055>057-062-270600
...Central New York...

CITY           SKY/WX    TMP DP  RH WIND       PRES   REMARKS
Binghamton     CLEAR     26  14  60 SW8       30.12R WCI  18
Cortland       FAIR      28  19  69 CALM      30.13R
Dansville      PTCLDY    31  16  54 SE9       30.13S WCI  23
Elmira         CLEAR     30  15  53 SW5       30.15R WCI  25
Seneca Falls   CLEAR     34  19  55 S13       30.13S WCI  25
Ithaca         MOCLDY    27  17  66 SE7       30.15R WCI  19
Hamilton       PTCLDY    28  16  59 S3        30.13S
Monticello     CLEAR    N/A N/A N/A CALM      30.18R
Norwich        MOCLDY    27  16  63 S7        30.17R WCI  19
Oneonta        CLEAR     27  16  63 SW7       30.11R WCI  19
Penn Yan       CLEAR     32  15  49 S12       30.12S WCI  23
Rome           CLOUDY    28  20  71 E6        30.15S WCI  22
Sidney         MOCLDY    27  16  63 W5        30.17R WCI  21
Syracuse       PTCLDY    32  17  54 S13       30.11S WCI  22
$$

PAZ038>040-043-044-047-048-072-270600
...Northeast Pennsylvania...

CITY           SKY/WX    TMP DP  RH WIND       PRES   REMARKS
Hazleton       CLEAR     28  18  64 SW5       30.22R WCI  23
Scranton       CLEAR     30  17  58 SW6       30.20S WCI  24
$$
&&
KEY
WCI = Wind Chill Index
VSB = Visibility
HX  = Heat Index
$$




USA.gov is the U.S. government's official web portal to all federal, state and local government web resources and services.